This is the latest recevied weather packets stored in our database for station/object SP8C-13. If no packets are shown the sender has not sent any weather packets the latest 10 day(s).
| Time | Temp. | Humidity | Pressure | Rain* | Wind** | Luminosity | Snow |
|---|---|---|---|---|---|---|---|
| 1777437817 | 3.33° C | 61% | 1024.9 hPa | - | - | - | - |
| 1777436017 | 0° C | 69% | 1024.8 hPa | - | - | - | - |
| 1777434217 | 2.22° C | 61% | 1024.5 hPa | - | - | - | - |
| 1777432417 | -1.11° C | 69% | 1024.4 hPa | - | - | - | - |
| 1777430616 | -1.11° C | 69% | 1024.2 hPa | - | - | - | - |
| 1777428816 | -1.11° C | 71% | 1024.1 hPa | - | - | - | - |
| 1777427016 | -1.67° C | 71% | 1024.3 hPa | - | - | - | - |
| 1777425216 | -2.22° C | 70% | 1024.2 hPa | - | - | - | - |
| 1777423416 | -1.67° C | 68% | 1024.2 hPa | - | - | - | - |
| 1777421616 | -1.67° C | 68% | 1024.4 hPa | - | - | - | - |
| 1777419815 | -1.67° C | 68% | 1024.5 hPa | - | - | - | - |
| 1777418015 | -1.11° C | 68% | 1024.4 hPa | - | - | - | - |
| 1777416215 | -0.56° C | 66% | 1024.3 hPa | - | - | - | - |
| 1777414415 | 0° C | 64% | 1024.4 hPa | - | - | - | - |
| 1777412615 | 0° C | 63% | 1024.4 hPa | - | - | - | - |
| 1777410814 | 0.56° C | 62% | 1024 hPa | - | - | - | - |
| 1777409014 | 1.67° C | 57% | 1024 hPa | - | - | - | - |
| 1777407214 | 1.67° C | 56% | 1023.8 hPa | - | - | - | - |
| 1777405414 | 3.89° C | 51% | 1023.7 hPa | - | - | - | - |
| 1777403614 | 4.44° C | 49% | 1023.7 hPa | - | - | - | - |
| 1777401813 | 5° C | 46% | 1023.5 hPa | - | - | - | - |
| 1777400013 | 6.11° C | 41% | 1023.4 hPa | - | - | - | - |
| 1777398213 | 6.67° C | 40% | 1023.1 hPa | - | - | - | - |
| 1777396413 | 8.33° C | 38% | 1022.8 hPa | - | - | - | - |
| 1777394613 | 8.33° C | 38% | 1022.8 hPa | - | - | - | - |
* Rain since midnight (hover to see other rain measurements)
** Current wind speed in m/s (hover to see current wind gust speed)